Manhattan, KS

12:05 AM CDT on May 01, 2017 (GMT -0500)
Manhattan Regional

Weather History for KMHK - August, 2012

Change the Weather History Date:

Saturday, August 25, 2012

  Actual Average Record
Temperature  
Mean Temperature 73 °F 76 °F  
Max Temperature 77 °F 88 °F 105 °F (2003)
Min Temperature 69 °F 63 °F 51 °F (2015)
Degree Days  
Heating Degree Days 0 0  
Month to date heating degree days 0 0  
Since 1 June heating degree days 13 12  
Since 1 July heating degree days 0 1  
Cooling Degree Days 8 11  
Month to date cooling degree days 256 319  
Year to date cooling degree days 1569 1125  
Since 1 June cooling degree days 1289 1025  
Growing Degree Days 22 (Base 50)    
Moisture  
Dew Point 69 °F    
Average Humidity 84    
Maximum Humidity 100    
Minimum Humidity 68    
Precipitation  
Precipitation 1.50 in 0.16 in 2.14 in (2005)
Month to date precipitation 5.03 3.31  
Year to date precipitation 17.66 23.57  
Sea Level Pressure  
Sea Level Pressure 29.84 in    
Wind  
Wind Speed 5 mph (SE)    
Max Wind Speed 16 mph    
Max Gust Speed 21 mph    
Visibility 6 miles    
Events Fog , Rain , Thunderstorm    
T = Trace of Precipitation, MM = Missing Value Source: NWS Daily Summary

Daily Weather History Graph

Daily Weather History Graph

Search for Another Location

Airport or City:

Trip Planner

Search our weather history database for the weather conditions in past years. The results will help you decide how hot, cold, wet, or windy it might be!

Date:

Astronomy

Aug. 25, 2012 Rise Set
Actual Time 6:49 AM CDT 8:07 PM CDT
Civil Twilight 6:21 AM CDT 8:34 PM CDT
Nautical Twilight 5:48 AM CDT 9:07 PM CDT
Astronomical Twilight 5:13 AM CDT 9:42 PM CDT
Moon 3:40 PM CDT (8/25) 12:35 AM CDT (8/25)
Length of Visible Light 14h 13m
Length of Day
13h 17m
Waxing Gibbous, 63% of the Moon is Illuminated
Aug 25
Waxing Gibbous
Aug 31
Full
Sep 8
Last Quarter
Sep 15
New
Sep 22
First Quarter

Hourly Weather History & Observations

Time (CDT) Temp. Dew Point Humidity Pressure Visibility Wind Dir Wind Speed Gust Speed Precip Events Conditions
12:52 AM 72.0 °F 66.0 °F 81% 29.82 in 10.0 mi NE 5.8 mph - N/A   Overcast
1:52 AM 72.0 °F 64.0 °F 76% 29.81 in 10.0 mi NE 6.9 mph - N/A   Overcast
2:52 AM 73.0 °F 63.0 °F 71% 29.80 in 10.0 mi ENE 5.8 mph - N/A   Overcast
3:52 AM 72.0 °F 64.0 °F 76% 29.82 in 10.0 mi South 5.8 mph - N/A   Overcast
4:52 AM 73.0 °F 63.0 °F 71% 29.83 in 10.0 mi West 5.8 mph - N/A   Overcast
5:52 AM 71.1 °F 66.9 °F 87% 29.83 in 10.0 mi Calm Calm - 0.00 in Rain Light Rain
6:52 AM 70.0 °F 68.0 °F 93% 29.85 in 4.0 mi Calm Calm - 0.07 in Rain Rain
7:44 AM 69.8 °F 66.2 °F 88% 29.86 in 3.0 mi Calm Calm - 0.08 in Rain Rain
7:52 AM 69.1 °F 66.9 °F 93% 29.84 in 3.0 mi Calm Calm - 0.09 in Rain Rain
8:18 AM 69.8 °F 66.2 °F 88% 29.87 in 3.0 mi ENE 4.6 mph - 0.03 in Rain Rain
8:34 AM 69.8 °F 68.0 °F 94% 29.87 in 3.0 mi East 4.6 mph - 0.06 in Rain Rain
8:37 AM 69.8 °F 68.0 °F 94% 29.87 in 2.5 mi East 4.6 mph - 0.07 in Rain Rain
8:52 AM 69.1 °F 68.0 °F 96% 29.84 in 3.0 mi East 5.8 mph - 0.09 in Rain Rain
9:52 AM 70.0 °F 69.1 °F 97% 29.84 in 4.0 mi East 6.9 mph - 0.03 in   Overcast
10:52 AM 72.0 °F 69.1 °F 91% 29.86 in 9.0 mi SE 6.9 mph - N/A   Overcast
11:34 AM 73.4 °F 69.8 °F 88% 29.88 in 10.0 mi Variable 5.8 mph - 0.00 in Rain Light Rain
11:52 AM 73.0 °F 70.0 °F 90% 29.86 in 10.0 mi SSE 4.6 mph - 0.00 in Rain Light Rain
12:13 PM 73.4 °F 69.8 °F 88% 29.88 in 10.0 mi South 10.4 mph - N/A   Overcast
12:52 PM 73.9 °F 70.0 °F 87% 29.85 in 5.0 mi SSE 9.2 mph - 0.01 in Rain Light Rain
1:19 PM 73.4 °F 71.6 °F 94% 29.87 in 10.0 mi SSE 11.5 mph - 0.01 in   Overcast
1:26 PM 73.4 °F 71.6 °F 94% 29.86 in 10.0 mi SSE 10.4 mph - 0.01 in   Overcast
1:52 PM 75.0 °F 70.0 °F 84% 29.83 in 10.0 mi SSE 15.0 mph 19.6 mph 0.01 in   Overcast
2:52 PM 73.9 °F 71.1 °F 91% 29.82 in 1.2 mi SSE 11.5 mph - 0.09 in Rain Heavy Rain
3:03 PM 73.4 °F 71.6 °F 94% 29.84 in 1.5 mi ESE 4.6 mph - 0.08 in Rain Light Rain
3:06 PM 73.4 °F 71.6 °F 94% 29.83 in 3.0 mi ESE 5.8 mph - N/A Rain Light Rain
3:16 PM 73.4 °F 71.6 °F 94% 29.83 in 10.0 mi SE 8.1 mph - 0.08 in   Overcast
3:52 PM 73.9 °F 71.1 °F 91% 29.81 in 6.0 mi SE 6.9 mph - 0.09 in Rain Rain
4:15 PM 73.4 °F 71.6 °F 94% 29.82 in 9.0 mi East 4.6 mph - 0.00 in Rain , Thunderstorm Light Rain
4:27 PM 73.4 °F 71.6 °F 94% 29.83 in 1.8 mi SSE 3.5 mph - 0.07 in Rain Rain
4:36 PM 73.4 °F 71.6 °F 94% 29.83 in 0.5 mi Calm Calm - 0.18 in Fog , Rain Heavy Rain
4:43 PM 71.6 °F 71.6 °F 100% 29.84 in 0.2 mi NW 3.5 mph - 0.41 in Fog , Rain , Thunderstorm Heavy Rain
4:47 PM 71.6 °F 71.6 °F 100% 29.84 in 0.2 mi Calm Calm - 0.58 in Fog , Rain , Thunderstorm Heavy Thunderstorms and Rain
4:52 PM 72.0 °F 72.0 °F 100% 29.83 in 0.2 mi South 4.6 mph - 0.73 in Fog , Rain , Thunderstorm Heavy Thunderstorms and Rain
5:02 PM 69.8 °F 69.8 °F 100% 29.84 in 1.0 mi SSE 11.5 mph 17.3 mph 0.13 in Rain , Thunderstorm Heavy Thunderstorms and Rain
5:13 PM 69.8 °F 69.8 °F 100% 29.83 in 2.0 mi South 12.7 mph - 0.19 in Rain , Thunderstorm Heavy Rain
5:20 PM 69.8 °F 69.8 °F 100% 29.83 in 3.0 mi SSW 11.5 mph - 0.21 in Rain , Thunderstorm Rain
5:37 PM 69.8 °F 69.8 °F 100% 29.84 in 3.0 mi SW 6.9 mph - 0.24 in Rain Rain
5:52 PM 70.0 °F 69.1 °F 97% 29.82 in 3.0 mi Calm Calm - 0.26 in Rain Rain
6:00 PM 69.8 °F 69.8 °F 100% 29.84 in 4.0 mi Calm Calm - 0.01 in Rain , Thunderstorm Rain
6:15 PM 71.6 °F 69.8 °F 94% 29.84 in 5.0 mi Calm Calm - 0.03 in Rain Light Rain
6:52 PM 71.1 °F 70.0 °F 96% 29.81 in 10.0 mi Calm Calm - 0.03 in   Partly Cloudy
7:52 PM 71.1 °F 70.0 °F 96% 29.82 in 10.0 mi West 3.5 mph - N/A   Scattered Clouds
8:39 PM 71.6 °F 69.8 °F 94% 29.85 in 10.0 mi Calm Calm - N/A   Mostly Cloudy
8:44 PM 71.6 °F 69.8 °F 94% 29.85 in 9.0 mi Calm Calm - N/A   Mostly Cloudy
8:52 PM 71.1 °F 70.0 °F 96% 29.84 in 8.0 mi Calm Calm - N/A   Overcast
9:52 PM 71.1 °F 70.0 °F 96% 29.85 in 10.0 mi Calm Calm - N/A   Overcast
10:26 PM 71.6 °F 69.8 °F 94% 29.88 in 10.0 mi SSE 3.5 mph - N/A   Overcast
10:52 PM 71.1 °F 70.0 °F 96% 29.86 in 10.0 mi SSE 3.5 mph - N/A   Overcast
11:52 PM 70.0 °F 69.1 °F 97% 29.84 in 10.0 mi NW 3.5 mph - N/A   Clear